• In Hungary
  • List of Countries
  • For 7 days
  • Water Temperature
  • Satellite Maps
  • Weather Map
  • News
  • Weather Widgets
  • user-avatar
    Login

    Hourly Weather Blenheim

    Today, 19 January, Friday

    Time Temperature Precipitation Wind Pressure Humidity
    00:00 +19°C° 0 mm 3 mps 759 mmHg 92%
    01:00 +18°C° 0 mm 3 mps 759 mmHg 92%
    02:00 +18°C° 0 mm 3 mps 759 mmHg 93%
    03:00 +18°C° 0 mm 3 mps 759 mmHg 93%
    04:00 +18°C° 0 mm 2 mps 759 mmHg 92%
    05:00 +18°C° 0 mm 2 mps 759 mmHg 92%
    06:00 +20°C° 0 mm 1 mps 760 mmHg 90%
    07:00 +21°C° 0 mm 1 mps 760 mmHg 83%
    08:00 +23°C° 0 mm 2 mps 760 mmHg 77%
    09:00 +25°C° 0 mm 2 mps 760 mmHg 70%
    10:00 +26°C° 0 mm 2 mps 760 mmHg 67%
    11:00 +26°C° 0 mm 2 mps 760 mmHg 64%
    12:00 +27°C° 0 mm 3 mps 761 mmHg 63%
    13:00 +27°C° 0 mm 3 mps 760 mmHg 62%
    14:00 +27°C° 0 mm 3 mps 760 mmHg 61%
    15:00 +28°C° 0 mm 3 mps 760 mmHg 60%
    16:00 +27°C° 0 mm 3 mps 760 mmHg 61%
    17:00 +27°C° 0 mm 3 mps 760 mmHg 63%
    18:00 +27°C° 0 mm 3 mps 760 mmHg 65%
    19:00 +25°C° 0 mm 3 mps 760 mmHg 73%
    20:00 +22°C° 0 mm 3 mps 761 mmHg 81%
    21:00 +20°C° 0 mm 3 mps 761 mmHg 90%
    22:00 +20°C° 0 mm 3 mps 761 mmHg 90%
    23:00 +20°C° 0 mm 4 mps 761 mmHg 91%

    Tomorrow, 20 January, Saturday

    Time Temperature Precipitation Wind Pressure Humidity
    00:00 +20°C° 0 mm 4 mps 761 mmHg 92%
    01:00 +20°C° 0 mm 4 mps 761 mmHg 91%
    02:00 +20°C° 0 mm 4 mps 760 mmHg 90%
    03:00 +20°C° 0 mm 5 mps 760 mmHg 89%
    04:00 +20°C° 0 mm 5 mps 760 mmHg 89%
    05:00 +20°C° 0 mm 5 mps 760 mmHg 88%
    06:00 +19°C° 0 mm 5 mps 760 mmHg 88%
    07:00 +21°C° 0 mm 5 mps 760 mmHg 77%
    08:00 +23°C° 0 mm 5 mps 760 mmHg 66%
    09:00 +27°C° 0 mm 6 mps 761 mmHg 55%
    10:00 +28°C° 0 mm 6 mps 760 mmHg 50%
    11:00 +30°C° 0 mm 6 mps 760 mmHg 46%
    12:00 +33°C° 0 mm 6 mps 760 mmHg 41%
    13:00 +33°C° 0 mm 6 mps 760 mmHg 41%
    14:00 +33°C° 0 mm 6 mps 760 mmHg 42%
    15:00 +33°C° 0 mm 6 mps 760 mmHg 42%
    16:00 +32°C° 0 mm 6 mps 760 mmHg 46%
    17:00 +30°C° 0 mm 6 mps 760 mmHg 50%
    18:00 +29°C° 0 mm 5 mps 760 mmHg 53%
    19:00 +27°C° 0 mm 5 mps 760 mmHg 62%
    20:00 +23°C° 0 mm 4 mps 761 mmHg 71%
    21:00 +21°C° 0 mm 4 mps 761 mmHg 79%
    22:00 +21°C° 0 mm 3 mps 761 mmHg 80%
    23:00 +21°C° 0 mm 3 mps 761 mmHg 81%

    Day after tomorrow, 21 January, Sunday

    Time Temperature Precipitation Wind Pressure Humidity
    00:00 +20°C° 0 mm 3 mps 762 mmHg 82%
    01:00 +20°C° 0 mm 3 mps 762 mmHg 82%
    02:00 +20°C° 0 mm 3 mps 761 mmHg 83%
    03:00 +19°C° 0 mm 3 mps 761 mmHg 84%
    04:00 +19°C° 0 mm 3 mps 761 mmHg 84%
    05:00 +19°C° 0 mm 2 mps 762 mmHg 84%
    06:00 +19°C° 0 mm 2 mps 762 mmHg 84%
    07:00 +23°C° 0 mm 2 mps 762 mmHg 75%
    08:00 +25°C° 0 mm 2 mps 762 mmHg 66%
    09:00 +27°C° 0 mm 2 mps 763 mmHg 56%
    10:00 +28°C° 0 mm 2 mps 762 mmHg 54%
    11:00 +29°C° 0 mm 3 mps 762 mmHg 52%
    12:00 +30°C° 0 mm 3 mps 762 mmHg 50%
    13:00 +30°C° 0 mm 3 mps 762 mmHg 51%
    14:00 +29°C° 0 mm 3 mps 762 mmHg 53%
    15:00 +29°C° 0 mm 3 mps 761 mmHg 54%
    16:00 +28°C° 0 mm 3 mps 761 mmHg 59%
    17:00 +27°C° 0 mm 3 mps 761 mmHg 63%
    18:00 +26°C° 0 mm 3 mps 761 mmHg 68%
    19:00 +25°C° 0 mm 3 mps 761 mmHg 74%
    20:00 +24°C° 0 mm 3 mps 761 mmHg 80%
    21:00 +22°C° 0 mm 3 mps 761 mmHg 87%
    22:00 +21°C° 0 mm 3 mps 761 mmHg 87%
    23:00 +21°C° 0 mm 3 mps 761 mmHg 88%

    22 January, Monday

    Time Temperature Precipitation Wind Pressure Humidity
    00:00 +21°C° 0 mm 3 mps 761 mmHg 88%
    01:00 +21°C° 0.5 mm 3 mps 761 mmHg 89%
    02:00 +21°C° 0.5 mm 3 mps 760 mmHg 90%
    03:00 +21°C° 0.5 mm 4 mps 760 mmHg 91%
    04:00 +21°C° 0.8 mm 3 mps 760 mmHg 92%
    05:00 +21°C° 0.8 mm 3 mps 760 mmHg 92%
    06:00 +21°C° 0.8 mm 3 mps 760 mmHg 93%
    07:00 +21°C° 0.2 mm 3 mps 760 mmHg 90%
    08:00 +22°C° 0.2 mm 3 mps 760 mmHg 88%
    09:00 +22°C° 0.2 mm 4 mps 760 mmHg 85%
    10:00 +22°C° 0.3 mm 4 mps 760 mmHg 86%
    11:00 +22°C° 0.3 mm 4 mps 759 mmHg 87%
    12:00 +22°C° 0.3 mm 4 mps 759 mmHg 87%
    13:00 +22°C° 0.1 mm 4 mps 759 mmHg 84%
    14:00 +23°C° 0.1 mm 4 mps 758 mmHg 80%
    15:00 +25°C° 0.1 mm 5 mps 758 mmHg 76%
    16:00 +25°C° 0.1 mm 5 mps 758 mmHg 78%
    17:00 +25°C° 0.1 mm 5 mps 758 mmHg 79%
    18:00 +25°C° 0.1 mm 5 mps 757 mmHg 81%
    19:00 +23°C° 0 mm 4 mps 758 mmHg 85%
    20:00 +22°C° 0 mm 4 mps 758 mmHg 88%
    21:00 +21°C° 0 mm 4 mps 758 mmHg 92%
    22:00 +21°C° 0 mm 4 mps 758 mmHg 92%
    23:00 +21°C° 0 mm 4 mps 758 mmHg 93%

    23 January, Tuesday

    Time Temperature Precipitation Wind Pressure Humidity
    00:00 +21°C° 0 mm 3 mps 758 mmHg 93%
    01:00 +21°C° 0 mm 3 mps 758 mmHg 93%
    02:00 +21°C° 0 mm 3 mps 758 mmHg 93%
    03:00 +21°C° 0 mm 3 mps 757 mmHg 93%
    04:00 +21°C° 0 mm 3 mps 758 mmHg 92%
    05:00 +21°C° 0 mm 3 mps 758 mmHg 92%
    06:00 +21°C° 0 mm 2 mps 758 mmHg 92%
    07:00 +23°C° 0.1 mm 2 mps 758 mmHg 87%
    08:00 +24°C° 0.1 mm 2 mps 759 mmHg 81%
    09:00 +26°C° 0.1 mm 1 mps 759 mmHg 75%
    10:00 +26°C° 0.3 mm 2 mps 759 mmHg 73%
    11:00 +27°C° 0.3 mm 2 mps 759 mmHg 70%
    12:00 +28°C° 0.3 mm 2 mps 758 mmHg 67%
    13:00 +28°C° 0.5 mm 2 mps 758 mmHg 69%
    14:00 +28°C° 0.5 mm 2 mps 758 mmHg 71%
    15:00 +28°C° 0.5 mm 2 mps 758 mmHg 73%
    16:00 +27°C° 0.4 mm 2 mps 758 mmHg 75%
    17:00 +27°C° 0.4 mm 2 mps 758 mmHg 77%
    18:00 +26°C° 0.4 mm 2 mps 758 mmHg 79%
    19:00 +25°C° 0 mm 2 mps 758 mmHg 84%
    20:00 +24°C° 0 mm 2 mps 758 mmHg 88%
    21:00 +23°C° 0 mm 2 mps 758 mmHg 93%
    22:00 +23°C° 0 mm 2 mps 758 mmHg 93%
    23:00 +21°C° 0 mm 3 mps 758 mmHg 93%

    24 January, Wednesday

    Time Temperature Precipitation Wind Pressure Humidity
    00:00 +21°C° 0 mm 3 mps 758 mmHg 93%
    01:00 +21°C° 0 mm 3 mps 758 mmHg 93%
    02:00 +20°C° 0 mm 3 mps 758 mmHg 92%
    03:00 +20°C° 0 mm 3 mps 757 mmHg 91%
    04:00 +20°C° 0 mm 3 mps 757 mmHg 89%
    05:00 +20°C° 0 mm 3 mps 758 mmHg 87%
    06:00 +20°C° 0 mm 3 mps 758 mmHg 84%
    07:00 +22°C° 0 mm 3 mps 758 mmHg 73%
    08:00 +26°C° 0 mm 3 mps 758 mmHg 62%
    09:00 +29°C° 0 mm 3 mps 758 mmHg 51%
    10:00 +30°C° 0 mm 4 mps 758 mmHg 47%
    11:00 +33°C° 0 mm 4 mps 758 mmHg 44%
    12:00 +34°C° 0 mm 4 mps 758 mmHg 40%
    13:00 +34°C° 0 mm 4 mps 758 mmHg 41%
    14:00 +34°C° 0 mm 4 mps 758 mmHg 42%
    15:00 +34°C° 0 mm 4 mps 758 mmHg 43%
    16:00 +33°C° 0 mm 4 mps 758 mmHg 48%
    17:00 +31°C° 0 mm 3 mps 758 mmHg 53%
    18:00 +30°C° 0 mm 3 mps 758 mmHg 57%
    19:00 +28°C° 0 mm 3 mps 759 mmHg 64%
    20:00 +26°C° 0 mm 2 mps 760 mmHg 71%
    21:00 +24°C° 0 mm 2 mps 760 mmHg 78%
    22:00 +23°C° 0 mm 2 mps 760 mmHg 78%
    23:00 +23°C° 0 mm 2 mps 761 mmHg 78%
    Show more